Change the Weather History Date:

Wednesday, December 5, 2012

  Actual Average Record
Temperature  
Mean Temperature -13 °F -  
Max Temperature -6 °F - - ()
Min Temperature -20 °F - - ()
Degree Days  
Heating Degree Days 78    
Moisture  
Dew Point -13 °F    
Average Humidity 80    
Maximum Humidity 82    
Minimum Humidity 70    
Precipitation  
Precipitation 0.00 in - - ()
Sea Level Pressure  
Sea Level Pressure 30.09 in    
Wind  
Wind Speed 11 mph ()    
Max Wind Speed 15 mph    
Max Gust Speed -    
T = Trace of Precipitation, MM = Missing Value Source: Averaged Metar Reports

Daily Weather History Graph

Daily Weather History Graph

Search for Another Location

Airport or City:

Trip Planner

Search our weather history database for the weather conditions in past years. The results will help you decide how hot, cold, wet, or windy it might be!

Date:

Astronomy

Dec. 05, 2012 Rise Set
Actual Time 10:05 AM MST 3:45 PM MST
Civil Twilight 9:04 AM MST 4:47 PM MST
Nautical Twilight 8:04 AM MST 5:47 PM MST
Astronomical Twilight 7:10 AM MST 6:41 PM MST
Moon No Moon Rise 12:59 PM MST (12/5)
Length of Visible Light 7h 43m
Length of Day
5h 39m
Waning Gibbous, 59% of the Moon is Illuminated
Dec 5
Waning Gibbous
Dec 6
Last Quarter
Dec 13
New
Dec 19
First Quarter
Dec 28
Full

Hourly Weather History & Observations

Time (MST) Temp. Windchill Dew Point Humidity Pressure Visibility Wind Dir Wind Speed Gust Speed Precip Events Conditions
12:00 AM -12.3 °F -34.3 °F -16.8 °F 80% 30.03 in - NNW 13.8 mph - N/A   Unknown
1:00 AM -12.1 °F -34.9 °F -16.8 °F 80% 30.00 in - NNW 15.0 mph - N/A   Unknown
2:00 AM -11.7 °F -33.6 °F -16.2 °F 80% 30.00 in - NNW 13.8 mph - N/A   Unknown
3:00 AM -10.7 °F -33.0 °F -15.2 °F 80% 29.99 in - NW 15.0 mph - N/A   Unknown
4:00 AM -9.2 °F -29.6 °F -13.4 °F 82% 30.01 in - NW 12.7 mph - N/A   Unknown
5:00 AM -9 °F - -13 °F 73% 30.01 in - NNW 15.0 mph - -  
5:00 AM -8.7 °F -30.5 °F -13.0 °F 81% 30.01 in - NNW 15.0 mph - N/A   Unknown
8:00 AM -8.9 °F -29.9 °F -13.0 °F 82% 30.04 in - NNW 13.8 mph - N/A   Unknown
9:00 AM -8.7 °F -29.7 °F -13.0 °F 81% 30.05 in - NNW 13.8 mph - N/A   Unknown
10:00 AM -8.3 °F -29.2 °F -12.6 °F 81% 30.06 in - NNW 13.8 mph - N/A   Unknown
11:00 AM -8 °F - -13 °F 70% 30.07 in - NNW 13.8 mph - -  
11:00 AM -8.3 °F -29.2 °F -12.6 °F 81% 30.07 in - NNW 13.8 mph - N/A   Unknown
12:00 PM -8.5 °F -30.2 °F -12.8 °F 81% 30.07 in - NNW 15.0 mph - N/A   Unknown
1:00 PM -8.7 °F -30.5 °F -13.2 °F 81% 30.08 in - NNW 15.0 mph - N/A   Unknown
2:00 PM -8.0 °F -28.8 °F -12.5 °F 81% 30.09 in - NW 13.8 mph - N/A   Unknown
3:00 PM -7.6 °F -27.5 °F -12.1 °F 81% 30.10 in - NW 12.7 mph - N/A   Unknown
4:00 PM -7.8 °F -25.9 °F -12.1 °F 81% 30.12 in - NW 10.4 mph - N/A   Unknown
5:00 PM -8 °F - -12 °F 73% 30.14 in - NW 8.1 mph - -  
5:00 PM -7.8 °F -23.6 °F -12.1 °F 81% 30.14 in - NW 8.1 mph - N/A   Unknown
6:00 PM -7.6 °F -24.6 °F -12.1 °F 81% 30.15 in - NW 9.2 mph - N/A   Unknown
7:00 PM -7.2 °F -24.2 °F -11.6 °F 81% 30.16 in - NNW 9.2 mph - N/A   Unknown
8:00 PM -6.9 °F -23.7 °F -11.4 °F 81% 30.16 in - NNW 9.2 mph - N/A   Unknown
9:00 PM -6.9 °F -23.7 °F -11.2 °F 81% 30.16 in - NNW 9.2 mph - N/A   Unknown
10:00 PM -6.7 °F -21.0 °F -11.2 °F 81% 30.17 in - NW 6.9 mph - N/A   Unknown
11:00 PM -7 °F - -11 °F 73% 30.17 in - NW 6.9 mph - -  
11:00 PM -6.5 °F -20.8 °F -11.0 °F 81% 30.17 in - NW 6.9 mph - N/A   Unknown